[[{"header":{"parameterUnit":"m.s-1","parameterCategory":2,"la1":30.2991,"la2":30.254,"lo1":-89.0895,"lo2":-89.0444,"dy":0.0017,"dx":0.0017,"nx":28,"ny":28,"refTime":"2024-11-25T03:00:00:Z","depth":"0","parameterNumber":2,"parameterNumberName":"U-component_of_CURRENTS"},"data":[0,0,0,0,0,0,0,0,0,0,0,0,0,0,0,0,0,0,0,0,0,0,0,0,0,0,0,0,0,0,0,0,0,0,0,0,0,0,0,0,0,0,0,0,0,0,0,0,0,0,0,0,0,0,0,0,0,0,0.2228,0.2228,0,0.2238,0.2238,0.2239,0.2169,0.2167,0.2165,0.2163,0.2173,0.2175,0.2177,0,0,0,0,0,0,0,0,0,0,0,0,0,0.2223,0.2223,0.2228,0.2228,0.2228,0.2238,0.2238,0.2239,0.2169,0.2167,0.2164,0.2162,0.2172,0.2174,0.2177,0,0,0,0,0,0,0,0,0,0,0,0,0,0.223,0.2223,0.2228,0.2193,0.219,0.2238,0.2238,0.2239,0.217,0.2167,0.2164,0.2161,0.2171,0.2174,0.2177,0.2261,0,0,0.2188,0.2189,0,0,0,0,0,0,0,0,0.223,0.223,0.2198,0.2196,0.2192,0.2198,0.224,0.2246,0.2171,0.2179,0.2163,0.2159,0.2182,0.2185,0.2196,0.2262,0.2262,0.2188,0.219,0.2191,0.2192,0,0,0,0,0,0,0,0.2229,0.223,0.2233,0.2198,0.2195,0.2203,0.22,0.2241,0.2199,0.2178,0.2173,0.2173,0.218,0.2193,0.2195,0.2262,0.2188,0.2191,0.2193,0.2194,0.238,0.2383,0,0,0,0,0,0,0.2225,0.2229,0.2233,0.2233,0.2202,0.2205,0.2202,0.22,0.2199,0.2195,0.2175,0.2169,0.2188,0.2192,0.2195,0.2241,0.2191,0.2194,0.2196,0.2378,0.2381,0.2384,0,0,0,0,0,0,0.2224,0.2225,0.2232,0.223,0.2231,0.2208,0.2207,0.2202,0.2204,0.2196,0.2192,0.218,0.2186,0.2191,0.2234,0.2242,0.2196,0.2199,0.2374,0.2379,0.2383,0.2366,0,0,0,0,0,0,0.2224,0.2225,0.2232,0.223,0.2231,0.2253,0.221,0.2205,0.2209,0.2201,0.2201,0.2198,0.2184,0.2229,0.2237,0.2246,0.2202,0.237,0.2376,0.2381,0.2363,0.2369,0.2375,0,0,0,0,0,0.2224,0.2233,0.2233,0.2233,0.2239,0.2254,0.2256,0.223,0.2212,0.222,0.2226,0.2198,0.2269,0.2235,0.2243,0.2253,0.2368,0.2374,0.2381,0.236,0.2368,0.2375,0,0,0,0,0,0,0.2228,0.2227,0.2226,0.2232,0.2243,0.2241,0.2247,0.2243,0.2257,0.2245,0.2239,0.2239,0.2279,0.2294,0.2255,0.2331,0.2315,0.2323,0.2296,0.2304,0.2309,0.2267,0.2204,0,0,0,0,0,0.2239,0.2244,0.225,0.2257,0.2264,0.2265,0.2272,0.2256,0.2265,0.2265,0.2269,0.2289,0.2323,0.233,0.2361,0.2411,0.242,0.2428,0.2434,0.2438,0.2417,0.2458,0.2464,0.2406,0.2406,0.2406,0,0,0.2241,0.2243,0.2245,0.226,0.2265,0.227,0.226,0.2266,0.2265,0.2271,0.2282,0.2314,0.2346,0.2385,0.2405,0.2388,0.2469,0.2447,0.2449,0.2425,0.2465,0.247,0.2474,0.2411,0.241,0.2409,0,0,0.2242,0.2254,0.2257,0.2267,0.2275,0.2279,0.2283,0.2291,0.2288,0.2323,0.2326,0.2362,0.2414,0.2424,0.2441,0.2514,0.2505,0.2539,0.2519,0.2561,0.2564,0.2566,0.2604,0.261,0.2532,0.2532,0.2532,0,0.2247,0.2244,0.2263,0.2267,0.2264,0.2282,0.2278,0.2296,0.2314,0.2317,0.232,0.2396,0.2424,0.246,0.2481,0.2518,0.2543,0.2476,0.2561,0.2565,0.2568,0.2605,0.2612,0.2532,0.2532,0.2532,0.2532,0,0.2245,0.2244,0.2247,0.2252,0.2263,0.2263,0.2281,0.2296,0.2305,0.2313,0.2355,0.2406,0.2435,0.2472,0.2495,0.2541,0.2554,0.2564,0.2524,0.2571,0.261,0.2617,0.2532,0.2532,0.2532,0.2532,0,0,0.2242,0.2244,0.2242,0.2231,0.2247,0.2248,0.2264,0.2275,0.227,0.2312,0.2312,0.2393,0.241,0.2435,0.2478,0.2519,0.2581,0.2549,0.2551,0.2552,0.2674,0.2689,0.2698,0.2604,0.2605,0.2606,0.2697,0,0.223,0.222,0.2225,0.2209,0.2203,0.2218,0.2226,0.224,0.226,0.2273,0.2325,0.2356,0.24,0.2421,0.2469,0.2555,0.2598,0.2555,0.2658,0.2661,0.2638,0.2706,0.2664,0.2742,0.2704,0.2706,0.2707,0,0.222,0.221,0.2192,0.217,0.2168,0.2166,0.2163,0.2173,0.2203,0.222,0.2251,0.2292,0.236,0.2395,0.2528,0.2501,0.2582,0.2647,0.2652,0.2666,0.2688,0.2691,0.2757,0.2626,0.2718,0.2717,0.2716,0,0.2199,0.218,0.2158,0.2154,0.2146,0.2136,0.2134,0.2153,0.2162,0.2186,0.2198,0.2263,0.2312,0.2411,0.2551,0.2544,0.2699,0.2703,0.2788,0.279,0.2772,0.277,0.2687,0.2791,0.2791,0.279,0.279,0,0.2181,0.2161,0.2143,0.2133,0.2108,0.2105,0.2091,0.21,0.2116,0.2131,0.217,0.2207,0.2322,0.2425,0.2538,0.2691,0.2692,0.2789,0.2817,0.2771,0.2769,0.2668,0.2642,0.2794,0.2793,0.2792,0.2792,0,0.2176,0.216,0.2137,0.2112,0.2103,0.2089,0.2078,0.2076,0.2084,0.2107,0.2117,0.2185,0.2314,0.2437,0.2608,0.2683,0.2746,0.2874,0.2812,0.283,0.2766,0.2745,0.2571,0.2542,0.2966,0.2967,0.2968,0,0.2177,0.2164,0.2134,0.2127,0.2117,0.2094,0.2088,0.2074,0.2077,0.2109,0.2128,0.2228,0.231,0.254,0.2699,0.2876,0.278,0.2925,0.2899,0.2754,0.2751,0.2557,0.2531,0.2882,0.2882,0.2882,0.2882,0,0.2192,0.2182,0.217,0.2154,0.2138,0.211,0.2094,0.2087,0.2082,0.2095,0.2135,0.2191,0.2392,0.2531,0.2745,0.287,0.2757,0.2931,0.2796,0.269,0.2458,0.2447,0.2823,0.2882,0.2882,0.2882,0.2882,0.2882,0.2219,0.2219,0.221,0.2191,0.2168,0.2136,0.211,0.2097,0.209,0.2094,0.2147,0.2214,0.2364,0.2655,0.2743,0.2814,0.278,0.278,0.2773,0.259,0.2519,0.2893,0.2972,0.2972,0.2973,0.2973,0.2973,0,0.2264,0.226,0.225,0.2219,0.219,0.2165,0.2124,0.209,0.2075,0.2104,0.2129,0.2239,0.2367,0.2496,0.264,0.2622,0.2524,0.2578,0.2286,0.2287,0.2645,0.2598,0.2578,0.2579,0.2579,0.2579,0.2579,0.2579,0.2293,0.2299,0.2283,0.2247,0.2215,0.2154,0.2119,0.2074,0.2072,0.2057,0.2082,0.2119,0.2206,0.2278,0.23,0.2333,0.2155,0.2088,0.2065,0.2307,0.2322,0.2337,0.2279,0.2193,0.2193,0.1594,0.159,0.1587]},{"header":{"parameterUnit":"m.s-1","parameterCategory":2,"la1":30.2991,"la2":30.254,"lo1":-89.0895,"lo2":-89.0444,"dy":0.0017,"dx":0.0017,"nx":28,"ny":28,"refTime":"2024-11-25T03:00:00:Z","depth":"0","parameterNumber":3,"parameterNumberName":"V-component_of_CURRENTS"},"data":[0,0,0,0,0,0,0,0,0,0,0,0,0,0,0,0,0,0,0,0,0,0,0,0,0,0,0,0,0,0,0,0,0,0,0,0,0,0,0,0,0,0,0,0,0,0,0,0,0,0,0,0,0,0,0,0,0,0,-0.0275,-0.0276,0,-0.0349,-0.0349,-0.035,-0.0402,-0.0403,-0.0404,-0.0404,-0.0443,-0.0443,-0.0443,0,0,0,0,0,0,0,0,0,0,0,0,0,-0.0176,-0.0178,-0.0275,-0.0276,-0.0277,-0.0348,-0.0349,-0.035,-0.0402,-0.0403,-0.0404,-0.0405,-0.0442,-0.0443,-0.0443,0,0,0,0,0,0,0,0,0,0,0,0,0,-0.0229,-0.0178,-0.0275,-0.0314,-0.0318,-0.0348,-0.0349,-0.035,-0.0402,-0.0403,-0.0404,-0.0405,-0.0442,-0.0443,-0.0443,-0.0427,0,0,-0.0445,-0.0445,0,0,0,0,0,0,0,0,-0.0226,-0.0232,-0.0307,-0.0311,-0.0316,-0.037,-0.0329,-0.0375,-0.0402,-0.0367,-0.0404,-0.0405,-0.0416,-0.0419,-0.0427,-0.0429,-0.043,-0.0445,-0.0446,-0.0446,-0.0446,0,0,0,0,0,0,0,-0.0222,-0.0229,-0.0301,-0.0308,-0.0314,-0.0327,-0.0335,-0.0338,-0.0382,-0.037,-0.0375,-0.0387,-0.0418,-0.0426,-0.0428,-0.0431,-0.0445,-0.0446,-0.0446,-0.0446,-0.0384,-0.0382,0,0,0,0,0,0,-0.0218,-0.0226,-0.0299,-0.0304,-0.0276,-0.0328,-0.0337,-0.0349,-0.0383,-0.039,-0.0386,-0.0389,-0.0425,-0.0427,-0.043,-0.0377,-0.0446,-0.0446,-0.0447,-0.0386,-0.0384,-0.0382,0,0,0,0,0,0,-0.0215,-0.0223,-0.0296,-0.0268,-0.0279,-0.0329,-0.0342,-0.035,-0.0361,-0.0396,-0.0402,-0.0389,-0.0426,-0.0429,-0.0423,-0.038,-0.0447,-0.0447,-0.0389,-0.0386,-0.0383,-0.0293,0,0,0,0,0,0,-0.0212,-0.0222,-0.0225,-0.0268,-0.0281,-0.0298,-0.0341,-0.0351,-0.0368,-0.0373,-0.04,-0.0405,-0.0427,-0.0421,-0.0423,-0.0382,-0.0448,-0.0391,-0.0387,-0.0384,-0.0299,-0.0287,-0.0278,0,0,0,0,0,-0.0208,-0.0209,-0.0224,-0.0233,-0.0284,-0.0297,-0.0303,-0.0341,-0.0367,-0.0356,-0.0379,-0.0404,-0.0398,-0.0421,-0.0423,-0.0381,-0.0393,-0.0388,-0.0384,-0.0303,-0.029,-0.0278,0,0,0,0,0,0,-0.0175,-0.0216,-0.0234,-0.0249,-0.0264,-0.0307,-0.031,-0.0334,-0.0345,-0.0354,-0.0387,-0.0392,-0.0368,-0.0385,-0.0409,-0.035,-0.0396,-0.0392,-0.0333,-0.0321,-0.0311,-0.0307,-0.0448,0,0,0,0,0,-0.0166,-0.0177,-0.021,-0.0223,-0.0227,-0.0266,-0.0277,-0.0299,-0.0321,-0.0328,-0.0345,-0.0356,-0.0349,-0.0346,-0.0348,-0.032,-0.0331,-0.029,-0.028,-0.0271,-0.0268,-0.0245,-0.0233,-0.0367,-0.0367,-0.0367,0,0,-0.0163,-0.0184,-0.0194,-0.0216,-0.0235,-0.0234,-0.0274,-0.0285,-0.0278,-0.0328,-0.0316,-0.0323,-0.0334,-0.0302,-0.0291,-0.0313,-0.0236,-0.0265,-0.0258,-0.026,-0.0239,-0.0226,-0.0215,-0.0364,-0.0364,-0.0365,0,0,-0.0156,-0.0171,-0.0176,-0.0178,-0.0199,-0.021,-0.0209,-0.0235,-0.0236,-0.0226,-0.0252,-0.0232,-0.0235,-0.0223,-0.0221,-0.0152,-0.0184,-0.0149,-0.0092,-0.0069,-0.0058,-0.0048,-0.0037,-0.0028,-0.0141,-0.0141,-0.0141,0,-0.015,-0.0162,-0.0176,-0.0173,-0.0175,-0.0195,-0.019,-0.0184,-0.0202,-0.0192,-0.0209,-0.0187,-0.0192,-0.0146,-0.0119,-0.0126,-0.0131,-0.014,-0.0055,-0.0047,-0.0038,-0.003,-0.002,-0.0136,-0.0137,-0.0137,-0.0138,0,-0.0148,-0.0149,-0.0147,-0.0148,-0.014,-0.0138,-0.0132,-0.0114,-0.0118,-0.0118,-0.0076,-0.0074,-0.0065,-0.0045,-0.0063,0.0003,-0.0024,-0.0048,-0.0089,-0.002,-0.0015,-0.0006,-0.0129,-0.0131,-0.0132,-0.0134,0,0,-0.0163,-0.0149,-0.0149,-0.0142,-0.0128,-0.0125,-0.0085,-0.0059,-0.004,-0.0019,0.0013,0.0054,0.0049,0.0053,0.005,0.0082,0.0145,0.0046,0.0045,0.0053,0.0188,0.0194,0.0203,0.0131,0.0133,0.0134,0.0171,0,-0.0161,-0.015,-0.0138,-0.0115,-0.0107,-0.0087,-0.005,-0.0022,0.0003,0.0038,0.0072,0.0097,0.0089,0.0097,0.0135,0.0138,0.0169,0.0137,0.0122,0.0121,0.0115,0.0214,0.0264,0.0304,0.0179,0.018,0.0181,0,-0.0169,-0.0158,-0.0139,-0.0101,-0.0095,-0.0075,-0.0023,0.0007,0.0068,0.0087,0.0133,0.0143,0.0208,0.0179,0.024,0.0216,0.0211,0.0214,0.0215,0.0193,0.0144,0.0213,0.0323,0.0255,0.0193,0.0192,0.0191,0,-0.0187,-0.0158,-0.0143,-0.0133,-0.009,-0.0067,-0.0039,0.0017,0.0055,0.0115,0.0147,0.0206,0.0241,0.026,0.0284,0.0256,0.0341,0.0295,0.0298,0.0297,0.0323,0.0322,0.0363,0.0333,0.0333,0.0333,0.0333,0,-0.0195,-0.0182,-0.0152,-0.0145,-0.0111,-0.0081,-0.0034,0.0005,0.0069,0.0131,0.0165,0.0233,0.0264,0.0316,0.0312,0.0352,0.0364,0.0332,0.0321,0.0357,0.0359,0.0284,0.0253,0.0334,0.0334,0.0334,0.0333,0,-0.0214,-0.02,-0.0178,-0.0136,-0.0122,-0.0098,-0.0031,0.0013,0.0063,0.0148,0.0172,0.0266,0.035,0.0378,0.0422,0.0396,0.0405,0.0419,0.0458,0.0451,0.037,0.0344,0.0365,0.035,0.0424,0.0425,0.0425,0,-0.0217,-0.0213,-0.0176,-0.0153,-0.0133,-0.0093,-0.0052,0.0003,0.0058,0.0184,0.0235,0.0337,0.0447,0.0519,0.0516,0.0528,0.0461,0.0523,0.0482,0.0402,0.0363,0.0312,0.0294,0.0553,0.0555,0.0556,0.0557,0,-0.0212,-0.0207,-0.0182,-0.0144,-0.0107,-0.0058,0.0002,0.0043,0.0132,0.0215,0.0352,0.045,0.0553,0.064,0.0643,0.0622,0.0497,0.0546,0.0468,0.0487,0.0432,0.0401,0.0471,0.0568,0.0567,0.0566,0.0565,0.0565,-0.0198,-0.0181,-0.0152,-0.0112,-0.0071,-0.0009,0.0047,0.0124,0.0224,0.0391,0.0454,0.0658,0.0743,0.079,0.0702,0.06,0.0577,0.0553,0.0533,0.049,0.0471,0.056,0.0634,0.0634,0.0633,0.0633,0.0632,0,-0.0162,-0.0144,-0.0111,-0.0057,-0.0004,0.001,0.0103,0.0183,0.0317,0.0501,0.0647,0.091,0.0927,0.089,0.0778,0.0624,0.0535,0.054,0.0484,0.0469,0.0565,0.0563,0.062,0.062,0.062,0.062,0.062,0.062,-0.0136,-0.01,-0.0087,-0.0001,0.0041,0.0137,0.0198,0.032,0.0468,0.0764,0.0996,0.1162,0.13,0.0954,0.0706,0.0597,0.0455,0.0445,0.0362,0.0422,0.042,0.0419,0.0408,0.0432,0.0432,0.0277,0.0276,0.0275]}],[{"header":{"parameterUnit":"m.s-1","parameterCategory":2,"la1":30.2991,"la2":30.254,"lo1":-89.0895,"lo2":-89.0444,"dy":0.0017,"dx":0.0017,"nx":28,"ny":28,"refTime":"2024-11-25T03:00:00:Z","depth":"2","parameterNumber":2,"parameterNumberName":"U-component_of_CURRENTS"},"data":[0,0,0,0,0,0,0,0,0,0,0,0,0,0,0,0,0,0,0,0,0,0,0,0,0,0,0,0,0,0,0,0,0,0,0,0,0,0,0,0,0,0,0,0,0,0,0,0,0,0,0,0,0,0,0,0,0,0,-0.0225,-0.0225,0,-0.0215,-0.0215,-0.0214,-0.0127,-0.0125,-0.0123,-0.0121,-0.0067,-0.0068,-0.0068,0,0,0,0,0,0,0,0,0,0,0,0,0,-0.0201,-0.0202,-0.0225,-0.0225,-0.0225,-0.0215,-0.0215,-0.0214,-0.0127,-0.0125,-0.0122,-0.012,-0.0067,-0.0068,-0.0068,0,0,0,0,0,0,0,0,0,0,0,0,0,-0.0203,-0.0202,-0.0225,-0.018,-0.0176,-0.0215,-0.0214,-0.0214,-0.0128,-0.0125,-0.0121,-0.0118,-0.0067,-0.0067,-0.0068,-0.0138,0,0,-0.0071,-0.0071,0,0,0,0,0,0,0,0,-0.0203,-0.0204,-0.0187,-0.0183,-0.0179,-0.0169,-0.0186,-0.0187,-0.0129,-0.0146,-0.0121,-0.0117,-0.01,-0.0098,-0.0103,-0.0135,-0.0133,-0.0071,-0.0071,-0.0072,-0.0072,0,0,0,0,0,0,0,-0.0203,-0.0204,-0.022,-0.0187,-0.0182,-0.0172,-0.0168,-0.0186,-0.014,-0.0144,-0.0138,-0.0138,-0.0097,-0.0103,-0.0101,-0.0132,-0.0071,-0.0072,-0.0072,-0.0073,-0.0098,-0.0098,0,0,0,0,0,0,-0.0207,-0.0204,-0.0221,-0.022,-0.0183,-0.0175,-0.0171,-0.0175,-0.014,-0.0133,-0.0141,-0.0134,-0.0103,-0.01,-0.0099,-0.0044,-0.0072,-0.0073,-0.0073,-0.0098,-0.0098,-0.0098,0,0,0,0,0,0,-0.0206,-0.0209,-0.0221,-0.0211,-0.0212,-0.0178,-0.0184,-0.0177,-0.016,-0.0139,-0.0129,-0.0129,-0.01,-0.0098,-0.0094,-0.0045,-0.0073,-0.0074,-0.0098,-0.0098,-0.0098,-0.002,0,0,0,0,0,0,-0.0206,-0.0209,-0.0216,-0.0212,-0.0213,-0.0227,-0.0187,-0.0179,-0.0167,-0.0157,-0.0127,-0.0119,-0.0097,-0.0093,-0.0095,-0.0047,-0.0074,-0.0098,-0.0098,-0.0098,-0.0022,-0.0017,-0.0013,0,0,0,0,0,-0.0205,-0.022,-0.0216,-0.0218,-0.0223,-0.0228,-0.0227,-0.0192,-0.017,-0.0165,-0.0143,-0.0119,-0.0095,-0.0095,-0.0097,-0.0048,-0.0097,-0.0098,-0.0098,-0.0024,-0.0018,-0.0013,0,0,0,0,0,0,-0.0208,-0.0213,-0.0208,-0.0222,-0.022,-0.0212,-0.0209,-0.0197,-0.0181,-0.0162,-0.0139,-0.0132,-0.0104,-0.0113,-0.0113,-0.0061,-0.0087,-0.0088,-0.003,-0.0024,-0.002,0.0018,-0.0075,0,0,0,0,0,-0.0219,-0.0227,-0.023,-0.0239,-0.024,-0.0229,-0.0228,-0.0205,-0.0193,-0.0181,-0.0157,-0.0136,-0.0117,-0.0099,-0.0094,-0.0085,-0.0056,-0.0054,-0.0049,-0.0045,-0.0019,0.0044,0.0059,-0.01,-0.01,-0.01,0,0,-0.0219,-0.0226,-0.0227,-0.024,-0.0235,-0.0223,-0.0219,-0.021,-0.018,-0.0183,-0.0136,-0.013,-0.0118,-0.0083,-0.0071,-0.0075,0.0013,-0.0046,-0.0041,-0.0017,0.0046,0.0062,0.0076,-0.01,-0.01,-0.01,0,0,-0.0217,-0.0233,-0.0231,-0.0231,-0.0227,-0.022,-0.0217,-0.0204,-0.0175,-0.0157,-0.0133,-0.0101,-0.0091,-0.0048,-0.0032,-0.0015,0.0026,-0.0014,0.0057,0.0118,0.0134,0.0147,0.021,0.0228,0.0,0.0001,0.0001,0,-0.0209,-0.0213,-0.0232,-0.0225,-0.0212,-0.0214,-0.0192,-0.0178,-0.0157,-0.0125,-0.0127,-0.0066,-0.0061,0.0011,0.0033,0.0005,0.0044,0.0044,0.0131,0.0144,0.0157,0.0218,0.0237,0.0004,0.0004,0.0003,0.0003,0,-0.0201,-0.0197,-0.0196,-0.0181,-0.0175,-0.0162,-0.0144,-0.012,-0.0093,-0.0064,0.0001,0.001,0.0063,0.0065,0.0061,0.0157,0.0157,0.0125,0.013,0.0179,0.0238,0.0257,0.001,0.0008,0.0007,0.0006,0,0,-0.018,-0.0186,-0.0179,-0.0161,-0.0146,-0.0136,-0.0089,-0.0042,0.0013,0.0042,0.0123,0.0159,0.0181,0.0198,0.0202,0.0257,0.0374,0.0242,0.0244,0.033,0.053,0.0507,0.0526,0.0369,0.0372,0.0375,0.0538,0,-0.0153,-0.0136,-0.0139,-0.0095,-0.008,-0.0061,-0.0014,0.0032,0.0075,0.0146,0.0186,0.025,0.0227,0.0266,0.0322,0.0355,0.0428,0.0334,0.0448,0.0452,0.0448,0.0548,0.0403,0.0534,0.0557,0.056,0.0562,0,-0.0127,-0.0121,-0.0084,-0.0044,-0.0031,0.0003,0.0088,0.0128,0.0216,0.0254,0.0333,0.036,0.0459,0.0413,0.0549,0.0496,0.0534,0.0553,0.0559,0.0531,0.0466,0.0485,0.0568,0.0594,0.0592,0.059,0.0587,0,-0.0098,-0.007,-0.0037,-0.0026,0.0014,0.0059,0.0095,0.0175,0.0224,0.0335,0.0392,0.0495,0.056,0.0627,0.0684,0.0632,0.0825,0.0748,0.0771,0.0769,0.0664,0.0647,0.0861,0.0861,0.0861,0.086,0.086,0,-0.0066,-0.0033,-0.0018,0.0001,0.0063,0.0089,0.0175,0.0227,0.0314,0.039,0.0457,0.0542,0.062,0.0726,0.0754,0.0849,0.0894,0.0826,0.0826,0.0683,0.0667,0.0718,0.0699,0.0866,0.0865,0.0864,0.0863,0,-0.003,-0.0026,0.0013,0.0056,0.0075,0.0125,0.02,0.0259,0.0344,0.0447,0.049,0.0617,0.0767,0.085,0.0974,0.0945,0.1021,0.104,0.0873,0.085,0.0902,0.0885,0.108,0.1081,0.1082,0.1083,0.1083,0,-0.0008,0.0009,0.0047,0.007,0.0095,0.0158,0.0202,0.0273,0.0327,0.0488,0.0539,0.0722,0.0836,0.1024,0.1019,0.1101,0.1127,0.1005,0.0866,0.0954,0.0934,0.0915,0.0897,0.076,0.0758,0.0756,0.0755,0,0.0035,0.0046,0.0068,0.0104,0.0146,0.0184,0.0248,0.0288,0.0382,0.0473,0.0613,0.0722,0.0888,0.0922,0.1026,0.1022,0.0973,0.0971,0.1149,0.0715,0.0662,0.0638,0.0629,0.0739,0.0741,0.0742,0.0743,0.0743,0.0072,0.009,0.0108,0.0149,0.018,0.0213,0.0252,0.031,0.039,0.0525,0.0615,0.0739,0.0745,0.0835,0.0876,0.0891,0.0915,0.0841,0.0843,0.0847,0.0769,0.0719,0.0793,0.0795,0.0797,0.0798,0.0799,0,0.0116,0.0128,0.0154,0.0183,0.0206,0.0233,0.0284,0.0313,0.0396,0.0511,0.0626,0.0528,0.0615,0.0704,0.0676,0.0669,0.0611,0.0675,0.0583,0.0596,0.0608,0.0515,0.0475,0.0475,0.0475,0.0475,0,0,0.0137,0.0162,0.0164,0.0199,0.023,0.0271,0.0304,0.0339,0.0398,0.0415,0.046,0.0574,0.0609,0.0506,0.0499,0.0524,0.0562,0.0496,0.0737,0.0638,0.0651,0.0666,0.0533,0,0,0,0,0]},{"header":{"parameterUnit":"m.s-1","parameterCategory":2,"la1":30.2991,"la2":30.254,"lo1":-89.0895,"lo2":-89.0444,"dy":0.0017,"dx":0.0017,"nx":28,"ny":28,"refTime":"2024-11-25T03:00:00:Z","depth":"2","parameterNumber":3,"parameterNumberName":"V-component_of_CURRENTS"},"data":[0,0,0,0,0,0,0,0,0,0,0,0,0,0,0,0,0,0,0,0,0,0,0,0,0,0,0,0,0,0,0,0,0,0,0,0,0,0,0,0,0,0,0,0,0,0,0,0,0,0,0,0,0,0,0,0,0,0,-0.0197,-0.0197,0,-0.0266,-0.0267,-0.0267,-0.035,-0.0352,-0.0353,-0.0355,-0.0513,-0.0515,-0.0518,0,0,0,0,0,0,0,0,0,0,0,0,0,-0.0108,-0.011,-0.0196,-0.0197,-0.0199,-0.0266,-0.0267,-0.0268,-0.035,-0.0352,-0.0354,-0.0355,-0.0512,-0.0515,-0.0518,0,0,0,0,0,0,0,0,0,0,0,0,0,-0.0157,-0.011,-0.0196,-0.0249,-0.0255,-0.0266,-0.0267,-0.0268,-0.035,-0.0352,-0.0354,-0.0356,-0.0511,-0.0515,-0.0519,-0.0501,0,0,-0.0532,-0.0534,0,0,0,0,0,0,0,0,-0.0154,-0.016,-0.0241,-0.0246,-0.0252,-0.0304,-0.0294,-0.0351,-0.0349,-0.0312,-0.0355,-0.0357,-0.0451,-0.046,-0.0464,-0.0508,-0.0515,-0.0532,-0.0535,-0.0537,-0.0538,0,0,0,0,0,0,0,-0.0151,-0.0157,-0.0222,-0.0242,-0.0249,-0.0261,-0.027,-0.0304,-0.0368,-0.0315,-0.0322,-0.0332,-0.0455,-0.0459,-0.0469,-0.0518,-0.0532,-0.0536,-0.0539,-0.054,-0.0639,-0.0639,0,0,0,0,0,0,-0.0146,-0.0154,-0.022,-0.0224,-0.021,-0.0261,-0.0271,-0.0283,-0.0366,-0.0381,-0.033,-0.0336,-0.0451,-0.0463,-0.0475,-0.0529,-0.0537,-0.0541,-0.0543,-0.0639,-0.0639,-0.0639,0,0,0,0,0,0,-0.0143,-0.0151,-0.0217,-0.0192,-0.0202,-0.0261,-0.0273,-0.0283,-0.0321,-0.0377,-0.0393,-0.0361,-0.0453,-0.0469,-0.0523,-0.0534,-0.0543,-0.0546,-0.0639,-0.0639,-0.0639,-0.0593,0,0,0,0,0,0,-0.014,-0.0149,-0.016,-0.0192,-0.0203,-0.0234,-0.0271,-0.0283,-0.0323,-0.0332,-0.0408,-0.0423,-0.0456,-0.0517,-0.0528,-0.054,-0.055,-0.0639,-0.0639,-0.0639,-0.0595,-0.0592,-0.0589,0,0,0,0,0,-0.0137,-0.0143,-0.016,-0.0169,-0.0215,-0.0234,-0.024,-0.0288,-0.0322,-0.0331,-0.0386,-0.0422,-0.0526,-0.052,-0.0533,-0.0546,-0.0639,-0.0639,-0.0639,-0.0596,-0.0592,-0.0589,0,0,0,0,0,0,-0.0115,-0.0153,-0.0173,-0.0192,-0.0216,-0.0249,-0.0267,-0.0296,-0.0343,-0.0366,-0.0421,-0.0439,-0.049,-0.0521,-0.0514,-0.0575,-0.0589,-0.0592,-0.0551,-0.0549,-0.0546,-0.0512,-0.0553,0,0,0,0,0,-0.0111,-0.0129,-0.016,-0.0178,-0.0191,-0.0231,-0.0249,-0.028,-0.0322,-0.0346,-0.04,-0.0455,-0.0492,-0.0525,-0.0562,-0.0595,-0.0598,-0.0613,-0.061,-0.0608,-0.0588,-0.06,-0.0596,-0.064,-0.064,-0.064,0,0,-0.011,-0.0133,-0.0145,-0.0175,-0.0202,-0.0209,-0.0249,-0.028,-0.0291,-0.0355,-0.0402,-0.0449,-0.0498,-0.0534,-0.056,-0.0569,-0.0595,-0.0608,-0.0605,-0.0587,-0.06,-0.0596,-0.0592,-0.064,-0.064,-0.064,0,0,-0.0105,-0.0135,-0.0143,-0.0158,-0.0194,-0.021,-0.0223,-0.0267,-0.0295,-0.0333,-0.0382,-0.043,-0.0498,-0.0525,-0.0548,-0.0551,-0.0578,-0.0579,-0.0543,-0.0555,-0.0551,-0.0547,-0.0534,-0.053,-0.058,-0.058,-0.058,0,-0.0104,-0.0114,-0.0147,-0.0152,-0.0162,-0.0211,-0.0211,-0.0235,-0.0293,-0.0305,-0.0348,-0.0429,-0.0485,-0.0505,-0.0514,-0.0544,-0.0548,-0.0551,-0.0549,-0.0546,-0.0543,-0.0531,-0.0527,-0.0578,-0.0578,-0.0578,-0.0579,0,-0.0093,-0.0105,-0.0112,-0.013,-0.0141,-0.0153,-0.0181,-0.0204,-0.025,-0.0273,-0.0317,-0.0382,-0.0426,-0.0459,-0.0492,-0.0502,-0.0508,-0.0541,-0.0552,-0.0536,-0.0524,-0.0521,-0.0575,-0.0576,-0.0576,-0.0577,0,0,-0.0084,-0.01,-0.0104,-0.0101,-0.013,-0.0134,-0.0146,-0.0157,-0.0158,-0.0225,-0.0225,-0.0305,-0.0345,-0.0371,-0.0425,-0.0444,-0.0439,-0.0485,-0.0487,-0.046,-0.0446,-0.0384,-0.0374,-0.0476,-0.0476,-0.0475,-0.0442,0,-0.0068,-0.006,-0.0073,-0.0065,-0.0061,-0.0089,-0.0085,-0.0104,-0.0133,-0.0145,-0.0207,-0.0239,-0.0309,-0.0338,-0.0366,-0.0419,-0.0429,-0.0443,-0.0475,-0.0475,-0.0413,-0.0368,-0.0377,-0.0342,-0.0438,-0.0438,-0.0437,0,-0.0051,-0.0046,-0.0035,-0.002,-0.002,-0.0022,-0.0015,-0.0018,-0.0036,-0.006,-0.0097,-0.0144,-0.0183,-0.0251,-0.0311,-0.0319,-0.0373,-0.0414,-0.0415,-0.0365,-0.0405,-0.0378,-0.0332,-0.0432,-0.0432,-0.0432,-0.0433,0,-0.0023,-0.0015,-0.0002,-0.0003,0.0003,0.0005,0.0007,-0.0001,0.0009,-0.0009,-0.0006,-0.0058,-0.0087,-0.0156,-0.0247,-0.0284,-0.0296,-0.036,-0.0344,-0.0341,-0.0355,-0.0352,-0.0388,-0.0388,-0.0388,-0.0389,-0.0389,0,0.0006,0.0015,0.0008,0.0013,0.0037,0.0032,0.0055,0.0052,0.0062,0.0087,0.0033,0.0048,-0.0069,-0.0097,-0.0191,-0.023,-0.0252,-0.0307,-0.032,-0.0338,-0.0334,-0.0426,-0.0431,-0.0387,-0.0388,-0.0388,-0.0388,0,0.0029,0.0022,0.0038,0.0044,0.0044,0.0057,0.0078,0.0107,0.0109,0.0144,0.0141,0.0129,0.0107,0.0019,-0.0074,-0.0142,-0.0201,-0.0216,-0.0207,-0.0218,-0.0252,-0.0255,-0.0187,-0.0184,-0.0182,-0.018,-0.0178,0,0.0046,0.0053,0.0053,0.006,0.0056,0.0074,0.0096,0.0112,0.0147,0.0198,0.0226,0.0231,0.0263,0.0195,0.0063,-0.0031,-0.0107,-0.0105,-0.0175,-0.0208,-0.0228,-0.0235,-0.0241,-0.0184,-0.0182,-0.0181,-0.018,0,0.0082,0.0068,0.0081,0.0088,0.01,0.0136,0.0166,0.0204,0.0242,0.0294,0.0373,0.0417,0.0371,0.0291,0.0179,0.0097,-0.0087,-0.008,-0.012,-0.0219,-0.0198,-0.022,-0.0228,-0.017,-0.0171,-0.0172,-0.0172,-0.0173,0.0105,0.012,0.0123,0.0132,0.0147,0.0195,0.0233,0.0292,0.0372,0.0477,0.0513,0.0585,0.0422,0.0317,0.0189,0.0048,0.0036,-0.0061,-0.0068,-0.0076,-0.0067,-0.0042,0.0018,0.0018,0.0018,0.0018,0.0018,0,0.0152,0.0154,0.0172,0.0193,0.0223,0.0205,0.0283,0.0353,0.0454,0.058,0.0683,0.0596,0.0507,0.0343,0.0146,0.0032,-0.0018,-0.0009,-0.0089,-0.0097,-0.0105,-0.0102,-0.0024,-0.0024,-0.0024,-0.0025,0,0,0.0182,0.0211,0.0218,0.026,0.0256,0.0305,0.0343,0.0455,0.0563,0.0733,0.078,0.0797,0.0563,0.038,0.0202,0.0101,0.0045,0.0093,0.014,0.0062,0.0056,-0.0122,-0.0123,0,0,0,0,0]}],[{"header":{"parameterUnit":"m.s-1","parameterCategory":2,"la1":30.2991,"la2":30.254,"lo1":-89.0895,"lo2":-89.0444,"dy":0.0017,"dx":0.0017,"nx":28,"ny":28,"refTime":"2024-11-25T03:00:00:Z","depth":"4","parameterNumber":2,"parameterNumberName":"U-component_of_CURRENTS"},"data":[0,0,0,0,0,0,0,0,0,0,0,0,0,0,0,0,0,0,0,0,0,0,0,0,0,0,0,0,0,0,0,0,0,0,0,0,0,0,0,0,0,0,0,0,0,0,0,0,0,0,0,0,0,0,0,0,0,0,-0.0367,-0.0367,0,-0.0377,-0.0378,-0.0378,-0.0385,-0.0385,-0.0385,-0.0385,-0.0398,-0.0398,-0.0398,0,0,0,0,0,0,0,0,0,0,0,0,0,-0.0368,-0.0368,-0.0367,-0.0367,-0.0367,-0.0377,-0.0378,-0.0378,-0.0385,-0.0385,-0.0385,-0.0385,-0.0397,-0.0398,-0.0398,0,0,0,0,0,0,0,0,0,0,0,0,0,-0.0372,-0.0368,-0.0367,-0.0373,-0.0373,-0.0377,-0.0378,-0.0378,-0.0385,-0.0385,-0.0385,-0.0385,-0.0397,-0.0398,-0.0398,-0.0398,0,0,-0.0399,-0.0399,0,0,0,0,0,0,0,0,-0.0371,-0.0371,-0.0372,-0.0372,-0.0373,-0.038,-0.0382,-0.0385,-0.0385,-0.038,-0.0385,-0.0386,-0.0392,-0.0393,-0.0394,-0.0398,-0.0399,-0.0399,-0.0399,-0.04,-0.04,0,0,0,0,0,0,0,-0.0371,-0.0371,-0.0371,-0.0372,-0.0373,-0.0379,-0.038,-0.0383,-0.0385,-0.0381,-0.0381,-0.0383,-0.0392,-0.0394,-0.0395,-0.0399,-0.0399,-0.04,-0.04,-0.04,-0.0418,-0.0418,0,0,0,0,0,0,-0.0369,-0.0371,-0.0371,-0.0371,-0.0373,-0.0379,-0.038,-0.0378,-0.0385,-0.0386,-0.0383,-0.0383,-0.0393,-0.0394,-0.0395,-0.0426,-0.04,-0.04,-0.04,-0.0417,-0.0418,-0.0418,0,0,0,0,0,0,-0.0369,-0.0369,-0.037,-0.0372,-0.0372,-0.0379,-0.0377,-0.0378,-0.0385,-0.0387,-0.0388,-0.0389,-0.0393,-0.0394,-0.0402,-0.0425,-0.04,-0.04,-0.0417,-0.0418,-0.0418,-0.0468,0,0,0,0,0,0,-0.0369,-0.0369,-0.0372,-0.0371,-0.0372,-0.0376,-0.0377,-0.0378,-0.0385,-0.0386,-0.0392,-0.0393,-0.0393,-0.0401,-0.0402,-0.0425,-0.0401,-0.0417,-0.0417,-0.0418,-0.0466,-0.047,-0.0474,0,0,0,0,0,-0.0369,-0.0374,-0.0372,-0.0372,-0.0375,-0.0376,-0.0377,-0.0382,-0.0385,-0.0389,-0.0393,-0.0393,-0.0405,-0.0402,-0.0403,-0.0427,-0.0417,-0.0417,-0.0418,-0.0464,-0.0469,-0.0473,0,0,0,0,0,0,-0.0382,-0.0375,-0.0373,-0.0377,-0.0377,-0.0378,-0.0386,-0.0385,-0.0392,-0.0396,-0.0396,-0.0397,-0.041,-0.0407,-0.0403,-0.043,-0.0411,-0.0412,-0.0446,-0.0451,-0.0454,-0.0438,-0.0401,0,0,0,0,0,-0.0384,-0.0385,-0.0378,-0.0385,-0.0384,-0.0385,-0.0389,-0.039,-0.0393,-0.0397,-0.0399,-0.0404,-0.0412,-0.0422,-0.042,-0.0439,-0.0419,-0.0453,-0.0457,-0.046,-0.0446,-0.0442,-0.0445,-0.042,-0.042,-0.042,0,0,-0.0393,-0.0389,-0.0391,-0.0388,-0.039,-0.039,-0.0388,-0.0395,-0.0402,-0.0397,-0.041,-0.0412,-0.0415,-0.0434,-0.0441,-0.0439,-0.0457,-0.0461,-0.0464,-0.0448,-0.0443,-0.0446,-0.0448,-0.042,-0.042,-0.042,0,0,-0.0406,-0.0406,-0.0407,-0.0405,-0.0405,-0.0404,-0.0405,-0.0405,-0.0413,-0.0423,-0.0423,-0.0437,-0.0445,-0.0458,-0.0466,-0.0487,-0.0469,-0.0489,-0.0509,-0.0506,-0.0508,-0.051,-0.0491,-0.0491,-0.0502,-0.0502,-0.0502,0,-0.0418,-0.0413,-0.041,-0.0408,-0.0411,-0.0409,-0.0411,-0.0419,-0.0422,-0.0433,-0.0431,-0.0447,-0.0458,-0.0485,-0.0496,-0.0498,-0.048,-0.0498,-0.0512,-0.0513,-0.0514,-0.0494,-0.0493,-0.0505,-0.0504,-0.0504,-0.0504,0,-0.0423,-0.0423,-0.0426,-0.042,-0.0425,-0.0427,-0.0432,-0.0443,-0.0452,-0.0456,-0.0476,-0.0486,-0.0489,-0.0511,-0.0513,-0.0531,-0.051,-0.0511,-0.0503,-0.0519,-0.0498,-0.0495,-0.0508,-0.0507,-0.0507,-0.0506,0,0,-0.0435,-0.043,-0.043,-0.043,-0.043,-0.0433,-0.0454,-0.0467,-0.0474,-0.0491,-0.0501,-0.0533,-0.0522,-0.0526,-0.0535,-0.0552,-0.0555,-0.0535,-0.0534,-0.052,-0.053,-0.0502,-0.0497,-0.0558,-0.0557,-0.0557,-0.0515,0,-0.0438,-0.0433,-0.0435,-0.0442,-0.0438,-0.0451,-0.0462,-0.0478,-0.049,-0.0497,-0.0525,-0.0514,-0.0532,-0.0521,-0.0547,-0.0545,-0.0549,-0.0564,-0.0512,-0.051,-0.0487,-0.0494,-0.0557,-0.0513,-0.0512,-0.0512,-0.0511,0,-0.0433,-0.0431,-0.0431,-0.044,-0.0442,-0.0445,-0.0465,-0.0467,-0.0484,-0.0488,-0.0497,-0.0494,-0.0512,-0.0514,-0.0527,-0.0532,-0.0522,-0.0531,-0.0529,-0.0479,-0.0477,-0.0491,-0.0507,-0.0507,-0.0508,-0.0508,-0.0508,0,-0.0423,-0.043,-0.0431,-0.0432,-0.0439,-0.0451,-0.0447,-0.0461,-0.0451,-0.0449,-0.0437,-0.0464,-0.0447,-0.0464,-0.0491,-0.0489,-0.0507,-0.0504,-0.047,-0.0468,-0.0484,-0.0483,-0.0494,-0.0494,-0.0494,-0.0494,-0.0495,0,-0.0412,-0.0416,-0.0423,-0.042,-0.0421,-0.0425,-0.0411,-0.0421,-0.0403,-0.0396,-0.04,-0.041,-0.0429,-0.0454,-0.0478,-0.0475,-0.049,-0.0461,-0.0455,-0.0506,-0.0508,-0.0483,-0.0482,-0.0493,-0.0493,-0.0494,-0.0494,0,-0.0395,-0.04,-0.0401,-0.041,-0.041,-0.0399,-0.0365,-0.0347,-0.0331,-0.032,-0.0304,-0.0338,-0.0361,-0.0399,-0.0428,-0.0433,-0.045,-0.0443,-0.0491,-0.0491,-0.0406,-0.0409,-0.0367,-0.0366,-0.0364,-0.0364,-0.0363,0,-0.0385,-0.038,-0.0385,-0.0378,-0.0378,-0.0352,-0.0327,-0.0303,-0.0287,-0.0302,-0.0307,-0.0312,-0.0345,-0.0352,-0.0408,-0.0419,-0.0424,-0.0405,-0.0403,-0.0395,-0.0393,-0.0397,-0.0401,-0.0361,-0.0361,-0.036,-0.036,0,-0.0366,-0.0369,-0.0368,-0.0349,-0.033,-0.0297,-0.0271,-0.0244,-0.0235,-0.024,-0.0263,-0.0273,-0.0302,-0.0336,-0.0335,-0.0366,-0.0407,-0.0393,-0.0394,-0.0392,-0.0387,-0.0388,-0.0393,-0.0356,-0.0357,-0.0357,-0.0357,0,-0.0354,-0.0344,-0.0339,-0.032,-0.0293,-0.0251,-0.0234,-0.0213,-0.0183,-0.0207,-0.024,-0.0279,-0.0314,-0.0311,-0.0351,-0.0338,-0.0319,-0.0295,-0.0301,-0.0306,-0.0312,-0.0298,-0.0225,0,0,0,0,0,-0.0335,-0.0317,-0.0306,-0.0274,-0.0245,-0.0232,-0.0208,-0.0195,-0.0205,-0.0198,-0.0201,-0.0236,-0.025,-0.0288,-0.0259,-0.033,-0.0328,-0.0296,-0.0305,-0.0334,-0.0339,-0.0355,0,0,0,0,0,0,-0.0321,-0.031,-0.03,-0.024,-0.0209,-0.0168,-0.015,-0.016,-0.0151,-0.0178,-0.0186,-0.0211,-0.0232,-0.0257,-0.0255,-0.0261,-0.0256,-0.0319,-0.0318,-0.0332,-0.0336,-0.0339,-0.0358,0,0,0,0,0]},{"header":{"parameterUnit":"m.s-1","parameterCategory":2,"la1":30.2991,"la2":30.254,"lo1":-89.0895,"lo2":-89.0444,"dy":0.0017,"dx":0.0017,"nx":28,"ny":28,"refTime":"2024-11-25T03:00:00:Z","depth":"4","parameterNumber":3,"parameterNumberName":"V-component_of_CURRENTS"},"data":[0,0,0,0,0,0,0,0,0,0,0,0,0,0,0,0,0,0,0,0,0,0,0,0,0,0,0,0,0,0,0,0,0,0,0,0,0,0,0,0,0,0,0,0,0,0,0,0,0,0,0,0,0,0,0,0,0,0,0.0509,0.0509,0,0.0529,0.0529,0.0529,0.0557,0.0558,0.0558,0.0559,0.0559,0.0559,0.0558,0,0,0,0,0,0,0,0,0,0,0,0,0,0.0481,0.0481,0.0509,0.0509,0.0509,0.0529,0.0529,0.0529,0.0557,0.0558,0.0558,0.0559,0.0559,0.0559,0.0558,0,0,0,0,0,0,0,0,0,0,0,0,0,0.0495,0.0481,0.0509,0.0526,0.0528,0.0528,0.0529,0.0529,0.0557,0.0558,0.0559,0.0559,0.056,0.0559,0.0558,0.0537,0,0,0.0556,0.0556,0,0,0,0,0,0,0,0,0.0495,0.0496,0.0523,0.0525,0.0527,0.0542,0.0519,0.0531,0.0557,0.0545,0.0559,0.056,0.0551,0.0551,0.0553,0.0537,0.0537,0.0556,0.0555,0.0555,0.0555,0,0,0,0,0,0,0,0.0494,0.0496,0.0516,0.0523,0.0526,0.0528,0.0531,0.0521,0.0543,0.0546,0.0549,0.0552,0.0552,0.0553,0.0553,0.0537,0.0556,0.0555,0.0555,0.0554,0.0519,0.0519,0,0,0,0,0,0,0.0492,0.0495,0.0515,0.0517,0.0513,0.0528,0.0531,0.0536,0.0543,0.0546,0.0551,0.0553,0.0554,0.0554,0.0553,0.0543,0.0555,0.0554,0.0554,0.052,0.0519,0.0519,0,0,0,0,0,0,0.0491,0.0494,0.0515,0.0506,0.0509,0.0528,0.0532,0.0536,0.0547,0.0547,0.0549,0.056,0.0555,0.0554,0.0549,0.0543,0.0554,0.0553,0.052,0.052,0.0519,0.0513,0,0,0,0,0,0,0.0491,0.0493,0.0495,0.0506,0.051,0.0513,0.0532,0.0536,0.0547,0.055,0.0555,0.0555,0.0555,0.055,0.0548,0.0542,0.0553,0.0521,0.052,0.0519,0.0514,0.0512,0.0511,0,0,0,0,0,0.0489,0.0485,0.0495,0.0497,0.0512,0.0513,0.0514,0.053,0.0547,0.0544,0.0552,0.0556,0.0543,0.0549,0.0547,0.054,0.0521,0.052,0.0519,0.0515,0.0513,0.0511,0,0,0,0,0,0,0.0468,0.0487,0.0499,0.05,0.0506,0.0518,0.0517,0.0532,0.0537,0.0543,0.0549,0.0549,0.0539,0.054,0.0546,0.0527,0.0532,0.0531,0.053,0.0528,0.0526,0.0497,0.0552,0,0,0,0,0,0.0465,0.047,0.0485,0.0485,0.0489,0.0506,0.051,0.0521,0.0528,0.0533,0.0537,0.0538,0.053,0.0531,0.052,0.0513,0.0499,0.0506,0.0505,0.0504,0.0478,0.0456,0.045,0.0515,0.0515,0.0515,0,0,0.0454,0.0467,0.0469,0.0481,0.049,0.0482,0.051,0.0515,0.051,0.0529,0.0524,0.0529,0.0524,0.0513,0.0509,0.0517,0.0482,0.0502,0.0501,0.0475,0.0454,0.0448,0.0442,0.0514,0.0514,0.0514,0,0,0.0431,0.045,0.0445,0.0449,0.0462,0.0469,0.0472,0.0487,0.0497,0.0496,0.0504,0.0504,0.0501,0.0493,0.049,0.0472,0.0469,0.0476,0.0451,0.0431,0.0425,0.042,0.0413,0.0407,0.0483,0.0482,0.0482,0,0.0416,0.0417,0.0441,0.0434,0.0433,0.0461,0.0448,0.0456,0.0467,0.047,0.0492,0.0477,0.0486,0.0457,0.0458,0.0467,0.0458,0.0463,0.0429,0.0423,0.0417,0.0411,0.0405,0.0482,0.0482,0.0482,0.0482,0,0.039,0.0388,0.0384,0.0385,0.0385,0.038,0.0393,0.0402,0.0426,0.0431,0.0421,0.043,0.0419,0.0431,0.0442,0.0406,0.0414,0.0426,0.0433,0.041,0.0406,0.0399,0.0482,0.0482,0.0482,0.0482,0,0,0.036,0.0364,0.0363,0.0362,0.0362,0.0363,0.0354,0.0355,0.0348,0.0367,0.0347,0.0353,0.0361,0.0354,0.0367,0.036,0.0337,0.0378,0.0377,0.037,0.0297,0.0283,0.0275,0.0344,0.0343,0.0341,0.0316,0,0.0332,0.0313,0.032,0.0299,0.0291,0.0311,0.0298,0.0304,0.0311,0.0298,0.0312,0.0296,0.0329,0.0329,0.0319,0.0324,0.0315,0.0342,0.0319,0.0318,0.0308,0.0265,0.0336,0.0311,0.0309,0.0308,0.0307,0,0.0308,0.0299,0.0277,0.027,0.0269,0.0274,0.0269,0.0255,0.0242,0.0244,0.0228,0.0224,0.0207,0.0243,0.0225,0.0241,0.0258,0.0271,0.027,0.0245,0.029,0.0333,0.0295,0.0296,0.0297,0.0298,0.0298,0,0.0296,0.0274,0.0261,0.0257,0.0247,0.0267,0.0274,0.0261,0.0248,0.0213,0.0193,0.016,0.0153,0.0151,0.0182,0.0198,0.0165,0.0194,0.0194,0.0195,0.022,0.0226,0.0168,0.0168,0.0168,0.0168,0.0168,0,0.0272,0.0264,0.0273,0.0272,0.0278,0.027,0.0272,0.027,0.0236,0.0188,0.0171,0.0114,0.0129,0.0114,0.0143,0.014,0.0135,0.0162,0.0172,0.0223,0.0229,0.0217,0.0223,0.0167,0.0167,0.0167,0.0167,0,0.0266,0.0263,0.0251,0.0258,0.0283,0.0291,0.0313,0.0293,0.0258,0.0191,0.0176,0.0094,0.0052,0.0078,0.0071,0.0094,0.0099,0.0107,0.0156,0.0175,0.0152,0.0158,0.0079,0.0078,0.0077,0.0076,0.0076,0,0.026,0.0254,0.0266,0.0287,0.0313,0.0337,0.0352,0.033,0.0279,0.0159,0.0106,0.0047,0.0,-0.0018,0.0002,0.0043,0.0064,0.0075,0.0102,0.0116,0.0135,0.0143,0.015,0.0074,0.0074,0.0074,0.0074,0,0.0239,0.0247,0.0236,0.029,0.033,0.0338,0.0348,0.029,0.0201,0.0192,0.0043,0.0003,-0.0054,-0.0064,-0.0016,0.0011,0.0064,0.0066,0.0068,0.0094,0.011,0.0132,0.014,0.0071,0.0071,0.0071,0.0071,0,0.0223,0.0213,0.0222,0.0273,0.0326,0.0313,0.0303,0.0237,0.0185,0.0043,-0.001,-0.0071,-0.0092,-0.0084,-0.006,-0.0019,-0.001,0.002,0.0025,0.0028,0.0028,0.0042,-0.0036,0,0,0,0,0,0.02,0.0194,0.0221,0.0239,0.0297,0.0345,0.0287,0.0239,0.0139,0.0047,0.0018,-0.0038,-0.0062,-0.0097,-0.0059,-0.0078,-0.0001,-0.0035,0.0037,0.0054,0.0057,0.0064,0,0,0,0,0,0,0.0176,0.0182,0.0193,0.0231,0.027,0.03,0.0267,0.0184,0.011,0.0027,0.0015,0.0018,0.0002,-0.0036,-0.0028,-0.0027,0.0025,-0.0032,-0.0032,0.0052,0.0055,0.0058,0.0066,0,0,0,0,0]}]]